Header for Extended Forecast Station List Page

Search by: ID | Name | Date | Parm | Value | Avg | % Avg
Sort by: ID | Name | Date | Parm | Value | Avg | % Avg

Enter search or view all records.

Click on id for station plot
#IDNameDateParmValueAvg% Avg
0ABOM8CLARK FORK-ABOVE MISSOULA02-12-2018DISCHARGE (KAF)15821047151
1AFRI1SNAKE-AMERICAN FALLS RESERVOIR02-12-2018INFLOW (KAF)30582220138
2ALFW1PEND OREILLE-ALBENI FALLS DAM02-12-2018INFLOW (KAF)99978798114
3ALPW4SNAKE-NEAR ALPINE02-12-2018DISCHARGE (KAF)14971114134
4ANAW1SNAKE-NEAR ANATONE02-12-2018DISCHARGE (KAF)104301173289
5ANTI1HENRYS FORK-AT ST. ANTHONY02-12-2018DISCHARGE (KAF)655577113
6ARAI1SF BOISE-ANDERSON RANCH DAM02-12-2018INFLOW (KAF)35240986
7ARDW1ENTIAT-NEAR ARDENVOIR02-12-2018DISCHARGE (KAF)144122119
8BELM8CLARK FORK-BELOW MISSOULA02-12-2018DISCHARGE (KAF)26351904138
9BERO3MALHEUR-AGENCY VALLEY DAM02-12-2018INFLOW (KAF)305258
10BFEI1KOOTENAI-AT BONNERS FERRY02-12-2018STAGE (FT)MMM
11BFTI1SNAKE-NEAR BLACKFOOT02-12-2018DISCHARGE (KAF)24811539161
12BIGI1BOISE-AT GLENWOOD BRIDGE02-12-2018DISCHARGE (KAF)31033393
13BITM8BITTERROOT-NEAR MISSOULA02-12-2018DISCHARGE (KAF)1053838126
14BONM8BLACKFOOT-NEAR BONNER02-12-2018DISCHARGE (KAF)992570174
15BONO3COLUMBIA-BONNEVILLE DAM02-12-2018INFLOW (KAF)5622654527103
16BRNI1SNAKE-BROWNLEE DAM02-12-2018INFLOW (KAF)5181570791
17BUDW1BUMPING-BUMPING LAKE DAM02-12-2018INFLOW (KAF)9786113
18BULO3BULLY CREEK-BULLY CREEK DAM02-12-2018INFLOW (KAF)7983
19CABI1CLARK FORK-CABINET GORGE DAM02-12-2018INFLOW (KAF)86027268118
20CFMM8FLATHEAD-AT COLUMBIA FALLS02-12-2018DISCHARGE (KAF)38192938130
21CHDW1CHELAN-LAKE CHELAN DAM02-12-2018INFLOW (KAF)693629110
22CHEI1FALL RIVER-NEAR CHESTER02-12-2018DISCHARGE (KAF)313263119
23CHJW1COLUMBIA-CHIEF JOSEPH DAM02-12-2018INFLOW (KAF)3019527019112
24CIBW1COLUMBIA-AT INTL BOUNDARY02-12-2018DISCHARGE (KAF)24923MM
25CLFW1NACHES-NEAR CLIFFDEL02-12-2018DISCHARGE (KAF)351301117
26CLUW1CLE ELUM-CLE ELUM LAKE02-12-2018INFLOW (KAF)310293106
27COEI1COEUR D ALENE-COEUR D ALENE LAKE02-12-2018INFLOW (KAF)31812774115
28CSDI1NF PAYETTE-CASCADE DAM02-12-2018INFLOW (KAF)38641094
29DEDI1DEADWOOD-NEAR LOWMAN02-12-2018INFLOW (KAF)10195106
30DLGM8CLARK FORK-AT DEER LODGE02-12-2018DISCHARGE (KAF)707890
31DRMM8CLARK FORK-NR DRUMMOND02-12-2018DISCHARGE (KAF)265MM
32DWRI1NF CLEARWATER-DWORSHAK DAM02-12-2018INFLOW (KAF)29382439120
33EASW1YAKIMA-AT EASTON02-12-2018DISCHARGE (KAF)122100122
34EMMI1PAYETTE-NEAR EMMETT02-12-2018DISCHARGE (KAF)967104193
35FCFM8NF FLATHEAD-NEAR COLUMBIA FALLS02-12-2018DISCHARGE (KAF)13161041126
36GCDW1COLUMBIA-GRAND COULEE DAM02-12-2018INFLOW (KAF)2991328033107
37GIBO3UMATILLA-NEAR GIBBON02-12-2018DISCHARGE (KAF)9184108
38HALI1BIG WOOD-AT HAILEY02-12-2018DISCHARGE (KAF)167144116
39HEII1SNAKE-NEAR HEISE02-12-2018DISCHARGE (KAF)27671725160
40HHWM8SF FLATHEAD-HUNGRY HORSE DAM02-12-2018INFLOW (KAF)17461366128
41HODO3HOOD-NEAR TUCKER BRIDGE02-12-2018DISCHARGE (KAF)26628095
42HOPI1PEND OREILLE-PEND OREILLE LAKE NR HOPE02-12-2018LAKE ELEVATION (FT)MMM
43HOTI1BRUNEAU-NEAR HOT SPRINGS02-12-2018DISCHARGE (KAF)10315766
44HWRI1BIG LOST-AT HOWELL RANCH NEAR CHILLY02-12-2018DISCHARGE (KAF)10084120
45IHDW1SNAKE-ICE HARBOR DAM02-12-2018INFLOW (KAF)177521788199
46IPDI1HENRYS FORK-ISLAND PARK DAM02-12-2018INFLOW (KAF)198171116
47JDAO3COLUMBIA-JOHN DAY DAM02-12-2018INFLOW (KAF)5467252950103
48JKSW4SNAKE-NEAR JACKSON02-12-2018DISCHARGE (KAF)1171838140
49JLKW4SNAKE-JACKSON LAKE AT DAM02-12-2018INFLOW (KAF)634457139
50KADW1KACHESS-KACHESS DAM02-12-2018INFLOW (KAF)10196105
51KEDW1YAKIMA-KEECHELUS LAKE02-12-2018INFLOW (KAF)117101116
52KERM8FLATHEAD-KERR DAM02-12-2018INFLOW (KAF)45013733121
53KIOW1YAKIMA-AT KIONA02-12-2018DISCHARGE (KAF)10271024100
54LAUW1KETTLE-AT LAURIER02-12-2018DISCHARGE (KAF)1308132499
55LEOI1KOOTENAI-AT LEONIA02-12-2018DISCHARGE (KAF)41283378122
56LGDW1SNAKE-LOWER GRANITE DAM02-12-2018INFLOW (KAF)173801776298
57LGSW1SNAKE-LITTLE GOOSE DAM02-12-2018INFLOW (KAF)173801779298
58LLKW1SPOKANE-AT LONGLAKE02-12-2018INFLOW (KAF)35663327107
59LMNW1SNAKE-LOWER MONUMENTAL DAM02-12-2018INFLOW (KAF)177521803198
60LUCI1BOISE-LUCKY PEAK DAM02-12-2018INFLOW (KAF)841MM
61LWRI1LITTLE WOOD-LITTLE WOOD DAM02-12-2018INFLOW (KAF)436468
62LYDM8KOOTENAI-LIBBY DAM02-12-2018INFLOW (KAF)33313205104
63MACI1BIG LOST-MACKAY RESERVOIR NEAR MACKAY02-12-2018INFLOW (KAF)8784104
64MAGI1BIG WOOD-MAGIC DAM02-12-2018INFLOW (KAF)15319479
65MCDW1COLUMBIA-MCNARY DAM02-12-2018INFLOW (KAF)5256050349104
66MILI1SNAKE-AT MILNER02-12-2018DISCHARGE (KAF)990672147
67MODO3DESCHUTES-AT MOODY NR BIGGS02-12-2018DISCHARGE (KAF)1472155195
68MONO3NF JOHN DAY-AT MONUMENT02-12-2018DISCHARGE (KAF)50962082
69MYKO3MCKAY CREEK-NEAR PILOT ROCK02-12-2018DISCHARGE (KAF)4537120
70NACW1NACHES-NEAR NACHES02-12-2018DISCHARGE (KAF)543380143
71NOXM8CLARK FORK-NOXON RAPIDS DAM02-12-2018INFLOW (KAF)77716928112
72ORFI1CLEARWATER-AT OROFINO02-12-2018DISCHARGE (KAF)44633807117
73OWYO3OWYHEE-OWYHEE DAM02-12-2018INFLOW (KAF)19036252
74PARI1BOISE-NEAR PARMA02-12-2018DISCHARGE (KAF)35441086
75PARW1YAKIMA-NEAR PARKER02-12-2018DISCHARGE (KAF)779650120
76PATW1METHOW-NEAR PATEROS02-12-2018DISCHARGE (KAF)685568121
77PDTO3UMATILLA-AT PENDLETON02-12-2018DISCHARGE (KAF)213192111
78PESW1WENATCHEE-AT PESHASTIN02-12-2018DISCHARGE (KAF)1111984113
79PIHI1PORTNEUF-AT POCATELLO02-12-2018DISCHARGE (KAF)7610275
80PITW1KLICKITAT-NEAR PITT02-12-2018DISCHARGE (KAF)48553092
81PLDI1SF SNAKE-PALISADES DAM02-12-2018INFLOW (KAF)22071748126
82PRTI1PRIEST-NEAR PRIEST RIVER02-12-2018DISCHARGE (KAF)756659115
83PRWW1COLUMBIA-PRIEST RAPIDS DAM02-12-2018INFLOW (KAF)3369330412111
84RCCM8ROCK CREEK-NEAR CLINTON02-12-2018DISCHARGE (KAF)239168142
85REXI1HENRYS FORK-AT REXBURG02-12-2018DISCHARGE (KAF)745670111
86RIDI1WILLOW CREEK-RIRIE DAM02-12-2018INFLOW (KAF)274265
87RILW1TIETON-RIMROCK LAKE NEAR RIMROCK02-12-2018INFLOW (KAF)165146113
88RRHW1COLUMBIA-ROCKY REACH DAM02-12-2018INFLOW (KAF)3252229102112
89SATI1ST MARIES-NEAR SANTA02-12-2018DISCHARGE (KAF)173150115
90SERO3JOHN DAY-AT SERVICE CK02-12-2018DISCHARGE (KAF)66289774
91SHYI1SNAKE-NEAR SHELLEY02-12-2018DISCHARGE (KAF)27651784155
92SIFI1SNAKE-AB EAGLE ROCK NR IDAHO FALLS02-12-2018DISCHARGE (KAF)28691773162
93SJMI1ST JOE-AT ST MARIES02-12-2018STAGE (FT)MMM
94SNAI1SNAKE-AT BLACKFOOT02-12-2018DISCHARGE (KAF)24981548161
95SPDI1CLEARWATER-AT SPALDING02-12-2018DISCHARGE (KAF)69516013116
96SPOW1SPOKANE-AT SPOKANE02-12-2018DISCHARGE (KAF)3229MM
97SRGM8CLARK FORK-AT ST REGIS02-12-2018DISCHARGE (KAF)33822608130
98STRM8ST. REGIS-NEAR ST. REGIS02-12-2018DISCHARGE (KAF)278225124
99SWAI1SNAKE-BELOW SWAN FALLS02-12-2018DISCHARGE (KAF)28052694104
100TCHW1WALLA WALLA-NEAR TOUCHET02-12-2018DISCHARGE (KAF)244200122
101TDAO3COLUMBIA-THE DALLES DAM02-12-2018INFLOW (KAF)5513252062106
102TEAI1TETON-NEAR ST. ANTHONY02-12-2018DISCHARGE (KAF)264227116
103TNAW1TEANAWAY-BELOW FORKS02-12-2018DISCHARGE (KAF)156131119
104TONW1OKANOGAN-NEAR TONASKET02-12-2018DISCHARGE (KAF)11721033113
105TRYO3GRANDE RONDE-TROY02-12-2018DISCHARGE (KAF)11891188100
106UMAO3UMATILLA-NEAR UMATILLA02-12-2018DISCHARGE (KAF)187156120
107UMTW1YAKIMA-AT UMTANUM02-12-2018DISCHARGE (KAF)682606113
108UNDW1WHITE SALMON-NEAR UNDERWOOD02-12-2018DISCHARGE (KAF)357357100
109VALO3MALHEUR-NEAR VALE02-12-2018DISCHARGE (KAF)466473
110WANW1COLUMBIA-WANAPUM DAM02-12-2018INFLOW (KAF)3370029913113
111WEII1SNAKE-AT WEISER02-12-2018DISCHARGE (KAF)4752528290
112WELW1COLUMBIA-WELLS DAM02-12-2018INFLOW (KAF)3202428669112
113WGCM8MF FLATHEAD-NEAR WEST GLACIER02-12-2018DISCHARGE (KAF)12591005125
114WHBI1SALMON-AT WHITEBIRD02-12-2018DISCHARGE (KAF)43123917110
115WRMO3MALHEUR-WARM SPRINGS DAM02-12-2018INFLOW (KAF)437458
116WSRI1WEISER-NEAR WEISER02-12-2018DISCHARGE (KAF)32643275